Home > Weather > Molde > Past weeks

Flag for Norway Past Weather in Molde, Norway — Yesterday and Last 2 Weeks

Now
59 °F

Broken clouds.


Feels Like: 59 °F
Forecast: 51 / 61 °F
Wind: 5 mph from South

Location: Aro

Current Time: May 31, 2016 at 8:01:01 PM

Latest Report: May 31, 2016 at 7:20 PM


Visibility: N/A

Pressure: 30.27 "Hg

Humidity: 88%

Dew Point: 55 °F

Location of MoldeLocation

Past Weather in Molde — Graph

°F

Molde Temperature Yesterday

Maximum temperature yesterday: 72 °F (at 12:50 PM)
Minimum temperature yesterday: 50 °F (at 3:50 AM)
Average temperature yesterday: 60 °F

High & Low Weather Summary for the Past Weeks

 TemperatureHumidityPressure
High72 °F (May 28, 1:20 PM)100% (May 31, 2:50 AM)30.36 "Hg (May 31, 2:50 AM)
Low39 °F (May 18, 3:20 AM)28% (May 21, 6:50 PM)29.56 "Hg (May 20, 2:50 PM)
Average52 °F69%29.98 "Hg
* Reported May 16 6:20 PM — May 31 6:20 PM, Molde, Weather by CustomWeather, © 2016

Note: Actual official high and low records may vary slightly from our data, if they occured in-between our weather recording intervals... More about our weather records

Advertising

Molde Weather History for the Previous 24 Hours

Scroll right to see more
 ConditionsComfort  
Time TempWeatherWind HumidityBarometerVisibility
6:20 PM
Tue, May 31
61 °FBroken clouds.9 mph83%30.27 "HgN/A
5:50 PM61 °FBroken clouds.5 mph83%30.27 "HgN/A
5:20 PM61 °FScattered showers. Broken clouds.6 mph88%30.27 "HgN/A
4:50 PM61 °FSprinkles. Broken clouds.1 mph88%30.27 "HgN/A
4:20 PM61 °FSprinkles. Broken clouds.1 mph83%30.27 "HgN/A
3:50 PM61 °FSprinkles. Broken clouds.2 mph88%30.27 "HgN/A
2:50 PM59 °FSprinkles. Broken clouds.8 mph88%30.27 "HgN/A
2:20 PM59 °FSprinkles. Broken clouds.8 mph94%30.27 "HgN/A
1:50 PM59 °FBroken clouds.6 mph94%30.24 "HgN/A
1:20 PM59 °FDrizzle. Broken clouds.5 mph94%30.24 "HgN/A
12:50 PM59 °FDrizzle. Broken clouds.7 mph94%30.24 "HgN/A
12:20 PM59 °FLight rain. Broken clouds.6 mph94%30.24 "HgN/A
11:50 AM57 °FSprinkles. Broken clouds.6 mph94%30.24 "HgN/A
11:20 AM57 °FSprinkles. Broken clouds.6 mph94%30.24 "HgN/A
10:50 AM57 °FSprinkles. Broken clouds.6 mph100%30.24 "HgN/A
10:20 AM57 °FLight rain. Broken clouds.5 mph100%30.24 "Hg6 mi
9:50 AM57 °FLight rain. Broken clouds.5 mph94%30.21 "Hg5 mi
9:20 AM57 °FLight rain. Broken clouds.No wind94%30.21 "HgN/A
8:50 AM57 °FSprinkles. Partly sunny.2 mph94%30.21 "HgN/A
8:20 AM57 °FSprinkles. Partly sunny.1 mph94%30.21 "HgN/A
7:50 AM55 °FSprinkles. Broken clouds.No wind100%30.21 "HgN/A
7:20 AM55 °FScattered showers. Broken clouds.2 mph100%30.21 "HgN/A
6:50 AM55 °FSprinkles. Broken clouds.3 mph100%30.21 "HgN/A
6:20 AM55 °FSprinkles. Broken clouds.3 mph100%30.21 "HgN/A
5:50 AM55 °FRain showers. Low clouds.6 mph100%30.21 "HgN/A
5:20 AM57 °FSprinkles. Overcast.3 mph94%30.18 "HgN/A
4:50 AM55 °FLight rain. Overcast.No wind100%30.18 "HgN/A
4:20 AM55 °FLight rain. Low clouds.6 mph100%30.18 "HgN/A
3:50 AM57 °FLight rain. Overcast.7 mph94%30.18 "HgN/A
3:20 AM57 °FLight rain. Overcast.No wind94%30.18 "HgN/A
2:50 AM55 °FRain. Overcast.No wind100%30.18 "HgN/A
2:20 AM57 °FLight rain. Overcast.No wind94%30.18 "HgN/A
1:50 AM57 °FLight rain. Clear.No wind94%30.18 "HgN/A
1:20 AM57 °FLight rain. Clear.1 mph94%30.18 "HgN/A
12:50 AM57 °FLight rain. Clear.7 mph94%30.18 "HgN/A
12:20 AM57 °FLight rain. Passing clouds.1 mph94%30.18 "HgN/A
11:50 PM
Mon, May 30
57 °FSprinkles. Partly sunny.2 mph94%30.18 "HgN/A
11:20 PM57 °FSprinkles. Partly sunny.7 mph94%30.18 "HgN/A
10:50 PM59 °FSprinkles. Partly sunny.5 mph94%30.18 "HgN/A
10:20 PM57 °FLight rain. Partly sunny.No wind94%30.18 "HgN/A
9:50 PM57 °FLight rain. Partly sunny.3 mph94%30.18 "HgN/A
9:20 PM59 °FLight rain. Partly sunny.1 mph88%30.18 "HgN/A
8:50 PM59 °FSprinkles. Partly sunny.6 mph88%30.18 "HgN/A
8:20 PM59 °FSprinkles. Partly sunny.9 mph82%30.18 "HgN/A
Weather by CustomWeather, © 2016

See weather overviewHow to use our weather pages